Regional Weather Roundup
Issued by NWS Sioux Falls, SD

Home | Current Version | Previous Version | Graphics & Text | Print | Product List | Glossary Off
Versions: 1 2 3 4 5 6 7 8 9 10 11 12 13 14 15 16 17 18 19 20 21 22 23 24 25 26 27 28 29 30 31 32 33 34 35 36 37 38 39 40 41 42 43 44 45 46 47 48 49 50

000
ASUS43 KFSD 291202
RWRFSD

WEATHER ROUNDUP FOR SE SOUTH DAKOTA/SW MINNESOTA/NW IOWA
NATIONAL WEATHER SERVICE SIOUX FALLS SD
700 AM CDT FRI AUG 29 2014

NOTE: "FAIR" INDICATES FEW OR NO CLOUDS BELOW 12,000 FEET WITH NO
SIGNIFICANT WEATHER AND OR OBSTRUCTIONS TO VISIBILITY.


SDZ038>040-050-052>070-291300-
SOUTHEAST SOUTH DAKOTA

CITY           SKY/WX    TMP DP  RH WIND       PRES   REMARKS
CHAMBERLAIN    CLOUDY    66  66  99 NW8       29.81S FOG
6HR MIN TEMP:  65; 6HR MAX TEMP:  67;

HURON          CLOUDY    67  67 100 N7        29.77S FOG
6HR MIN TEMP:  67; 6HR MAX TEMP:  69;

MADISON        CLOUDY    68  68 100 SW6       29.78S FOG
MITCHELL       CLOUDY    68  68 100 W5        29.78R FOG
6HR MIN TEMP:  67; 6HR MAX TEMP:  71;

SIOUX FALLS    CLOUDY    69  67  93 S5        29.77S
6HR MIN TEMP:  69; 6HR MAX TEMP:  73; 6HR PCP:  0.04;

WINNER         PTSUNNY   65  63  93 W5        29.83S
YANKTON        CLOUDY    66  66 100 W3        29.79R
$$

MNZ071-072-080-081-089-090-097-098-291300-
SOUTHWEST MINNESOTA

CITY           SKY/WX    TMP DP  RH WIND       PRES   REMARKS
FAIRMONT       CLOUDY    64  63  94 S6        29.81R
JACKSON        MOCLDY    68  63  83 S8        29.82S
LUVERNE        CLOUDY    72  68  88 S6        29.79S FOG
MARSHALL       CLOUDY    66  64  94 CALM      29.75S
6HR MIN TEMP:  66; 6HR MAX TEMP:  68;

MONTEVIDEO     TSTM      64  64 100 CALM      29.78R
PIPESTONE      CLOUDY    70  68  94 S9        29.79R FOG
REDWOOD FALLS  CLOUDY    71  68  90 S13       29.76S
TRACY          CLOUDY    71  69  94 S7        29.77S
WINDOM         CLOUDY    68  64  88 S9        29.81S
WORTHINGTON    CLOUDY    66  64  94 S8        29.82S
$$

IAZ001>003-012>014-020>022-031-032-NEZ013-014-SDZ071-291300-
NORTHWEST IOWA

CITY           SKY/WX    TMP DP  RH WIND       PRES   REMARKS
DENISON        MOCLDY    68  66  94 SE8       29.80R
ESTHERVILLE    MOCLDY    66  65  96 S7        29.80S
LE MARS        CLOUDY    70  68  94 S6        29.80R
ORANGE CITY    CLOUDY    70  66  88 S7        29.80R
SHELDON        MOCLDY    68  68 100 S6        29.80R
SIOUX CITY     CLOUDY    71  69  93 SE6       29.79R
6HR MIN TEMP:  70; 6HR MAX TEMP:  73;

SPENCER        MOCLDY    68  66  93 S6        29.81R
6HR MIN TEMP:  67; 6HR MAX TEMP:  73;

STORM LAKE     CLOUDY    70  70 100 S13G20    29.81S
$$

ABBREVIATIONS USED IN REMARKS
   TC - TEMPERATURE IN CELSIUS
  WCI - WIND CHILL INDEX
   HX - HEAT INDEX
  VSB - VISIBILITY



USA.gov is the U.S. government's official web portal to all federal, state and local government web resources and services.